Regional Weather Roundup
Issued by NWS

Home | Current Version | Previous Version | Graphics & Text | Print | Product List | Glossary On
Versions: 1 2 3 4 5 6 7 8 9 10 11 12 13 14 15 16 17 18 19 20 21 22 23 24 25 26 27 28 29 30 31 32 33 34 35 36 37 38 39 40 41 42 43 44 45 46 47 48 49 50
000
ASUS43 KBIS 271610
RWRND

NORTH DAKOTA REGIONAL WEATHER ROUNDUP
NATIONAL WEATHER SERVICE BISMARCK ND
1100 AM CDT TUE SEP 27 2016

NOTE: "FAIR" INDICATES FEW OR NO CLOUDS BELOW 12,000 FEET WITH NO
SIGNIFICANT WEATHER AND/OR OBSTRUCTIONS TO VISIBILITY.


NDZ001>003-009>011-017-271700-
NORTHWEST NORTH DAKOTA

CITY           SKY/WX    TMP DP  RH WIND       PRES   REMARKS
WILLISTON      SUNNY     57  46  66 SE5       29.99F
MINOT          SUNNY     59  38  45 W3        29.99S
MINOT AFB      SUNNY     58  38  48 NW2       29.98F
$$

NDZ018>021-031>035-040>046-271700-
SOUTHWEST NORTH DAKOTA

CITY           SKY/WX    TMP DP  RH WIND       PRES   REMARKS
BISMARCK       SUNNY     57  41  55 CALM      30.01F
DICKINSON      SUNNY     64  47  53 W5        30.00F
GARRISON         N/A     60  39  45 CALM      30.00S
HETTINGER ARPT SUNNY     65  48  54 W6        30.04F
$$

NDZ004>008-012>016-024-026-027-054-271700-
NORTHEAST NORTH DAKOTA

CITY           SKY/WX    TMP DP  RH WIND       PRES   REMARKS
GRAND FORKS    PTSUNNY   51  42  71 NW18G28   29.92S
GRND FRKS AFB  MOSUNNY   54  42  65 N17       29.92F
DEVILS LAKE    MOSUNNY   55  37  50 NW16      29.97R HAZE
$$

NDZ022-023-025-028>030-036>039-047>053-271700-
SOUTHEAST NORTH DAKOTA

CITY           SKY/WX    TMP DP  RH WIND       PRES   REMARKS
FARGO          SUNNY     56  41  57 NW20      29.91S
JAMESTOWN      SUNNY     57  36  45 N13       29.96S
$$




USA.gov is the U.S. government's official web portal to all federal, state and local government web resources and services.